Regional Weather Roundup
Issued by NWS

Home | Current Version | Previous Version | Graphics & Text | Print | Product List | Glossary Off
Versions: 1 2 3 4 5 6 7 8 9 10 11 12 13 14 15 16 17 18 19 20 21 22 23 24 25 26 27 28 29 30 31 32 33 34 35 36 37 38 39 40 41 42 43 44 45 46 47 48 49 50

000
ASUS43 KDTX 210501
RWRMI
MICHIGAN HOURLY REGIONAL WEATHER ROUNDUP
NATIONAL WEATHER SERVICE DETROIT/PONTIAC MI
1200 AM EST SUN DEC 21 2014

NOTE: "FAIR" INDICATES FEW OR NO CLOUDS BELOW 12,000 FEET WITH NO
SIGNIFICANT WEATHER AND/OR OBSTRUCTION TO VISIBILITY.

MIZ047>049-052>055-059>063-066>070-074>076-081>083-210600-
SOUTHEAST LOWER MICHIGAN

CITY           SKY/WX    TMP DP  RH WIND       PRES   REMARKS
ADRIAN         CLEAR     24  21  88 W3        30.29R
ALMA           CLOUDY    28  25  88 SE3       30.26F
ANN ARBOR      CLOUDY    22  21  96 CALM      30.27S
BAD AXE        PTCLDY    17  17  98 CALM      30.27F FOG
CARO           CLEAR     20  19  95 CALM      30.27S
DETROIT CITY   CLOUDY    31  21  66 SE3       30.28F
DETROIT        CLOUDY    30  23  75 CALM      30.29S
FLINT          CLEAR     23  18  81 CALM      30.27S
GROSSE ILE     CLOUDY    30  25  80 CALM      30.27F
HILLSDALE      CLOUDY    26  25  94 CALM      30.25S FOG
HOWELL         CLEAR     23  20  89 CALM      30.26R

CITY           SKY/WX    TMP DP  RH WIND       PRES   REMARKS
JACKSON        CLOUDY    26  23  88 CALM      30.26R
LAMBERTVILLE   CLOUDY    30  27  86 CALM      30.28S
LANSING        CLOUDY    27  22  81 S5        30.27S WCI  22
LAPEER         MOCLDY    23  21  93 CALM      30.27S
MASON          CLOUDY    26  23  85 CALM      30.26S
MONROE         CLOUDY    30  27  86 CALM      30.27S
MT. CLEMENS    CLOUDY    29  22  73 CALM      30.26S
PONTIAC        CLOUDY    27  19  72 CALM      30.25S
PORT HOPE        N/A     22  18  85 SW3       30.26F
PORT HURON     CLOUDY    27  23  86 CALM      30.28F
TRI CITIES     PTCLDY    25  21  85 CALM      30.28F
TROY           CLOUDY    32  21  63 SW3       30.29S
SAGINAW HB     CLEAR     25  25 100 CALM      30.27F
$$
MIZ043>046-050>051-056>058-064>065-071>073-077>080-210600-
SOUTHWEST LOWER MICHIGAN

CITY           SKY/WX    TMP DP  RH WIND       PRES   REMARKS
BATTLE CREEK   CLOUDY    31  26  82 SW5       30.26S HAZE    WCI  26
BENTON HARBOR  CLOUDY    31  26  82 S6        30.27S WCI  25
BIG RAPIDS     CLOUDY    29  28  97 CALM      30.23S FOG
COLDWATER      CLOUDY    29  27  92 MISG      30.26S
FREMONT        CLOUDY    29  28  94 CALM      30.24S FOG
HOLLAND        CLOUDY    32  27  81 S6        30.26S WCI  26
GRAND RAPIDS   LGT SNOW  30  26  85 S6        30.25F FOG     WCI  24
IONIA          CLOUDY    30  26  86 S3        30.25S
KALAMAZOO      CLOUDY    30  27  88 S6        30.26F FOG     WCI  24
LUDINGTON      CLOUDY    31  28  88 SE5       30.23F FOG     WCI  26
MARSHALL       CLOUDY    28  24  85 CALM      30.26S
MOUNT PLEASANT CLOUDY    28  25  89 CALM      30.26S
MUSKEGON       CLOUDY    31  28  89 SE6       30.25S FOG     WCI  25
SOUTH HAVEN    CLOUDY    32  27  80 S5        30.27R WCI  27
$$
MIZ016>042-210600-
NORTHERN LOWER MICHIGAN

CITY           SKY/WX    TMP DP  RH WIND       PRES   REMARKS
ALPENA         CLOUDY    22  20  92 CALM      30.27S
BEAVER ISLAND  CLOUDY    31  26  84 S3        30.23S
BELLAIRE       CLOUDY    27  21  77 CALM      30.26S
CADILLAC       CLOUDY    25  22  87 CALM      30.21S
CHARLEVOIX     CLOUDY    27  22  81 S6        30.27S WCI  21
FRANKFORT      CLOUDY    29  25  84 SE3       30.24S
GAYLORD        MOCLDY    19  17  92 CALM      30.21F
GRAYLING       CLOUDY    19  18  95 CALM      30.23F
HARBOR SPRINGS CLOUDY    24  19  83 NE6       30.24F WCI  16
HOUGHTON LAKE  CLOUDY    19  17  92 CALM      30.24S
MANISTEE       CLOUDY    28  23  80 E6        30.24S WCI  22
OSCODA         PTCLDY    16  15  94 CALM      30.27S
PELLSTON       CLOUDY    20  18  92 CALM      30.25F
ROGERS CITY    CLOUDY    19  19  96 CALM      30.27F
TRAVERSE CITY  CLOUDY    29  22  75 S3        30.24S
$$
MIZ007>008-015-210600-
EASTERN UPPER MICHIGAN

CITY           SKY/WX    TMP DP  RH WIND       PRES   REMARKS
KINROSS        CLOUDY    23  21  93 SE3       30.24S
MACKINAC ISLAN CLOUDY    27  21  79 S6        30.24S WCI  20
NEWBERRY       CLOUDY    26  23  90 S7        30.21S WCI  18
S. S. MARIE    CLOUDY    24  19  81 E5        30.28R WCI  18
MUNISING         N/A     30  22  72 S8        30.20S WCI  22
$$
MIZ004>006-011>014-085-210600-
CENTRAL UPPER MICHIGAN

CITY           SKY/WX    TMP DP  RH WIND       PRES   REMARKS
MANISTIQUE     CLOUDY    24  23  98 CALM      30.22S
ESCANABA       CLOUDY    27  25  93 CALM      30.21S
MENOMINEE      CLOUDY    28  23  80 CALM      30.20S
SAWYER-GWINN   CLOUDY    26  23  89 S8        30.16S WCI  17
$$
MIZ001>003-009>011-084-210600-
WESTERN UPPER MICHIGAN

CITY           SKY/WX    TMP DP  RH WIND       PRES   REMARKS
IRON MOUNTAIN  CLOUDY    27  23  85 S5        30.15F WCI  22
HOUGHTON       CLOUDY    28  25  88 S6        30.12S WCI  22
COPPER HARBOR    N/A     31  26  82 SW5       30.14F WCI  26
IRONWOOD       CLOUDY    28  27  93 S5        30.07S WCI  23
$$

ABBREVIATIONS USED IN REMARKS
   TC - TEMPERATURE IN CELSIUS
  WCI - WIND CHILL INDEX
   HX - HEAT INDEX
  VSB - VISIBILITY




USA.gov is the U.S. government's official web portal to all federal, state and local government web resources and services.